Location: ????????
(41.2842°N, 22.9320°E)
Time: 16:27:10
(UTC+00:00)

Daily predictions for brighter satellites

Satellite Brightness Start Highest point End
(mag) Time Altitude Azimuth Time Altitude Azimuth Time Altitude Azimuth
BREEZE-M DEB (TANK) 4.3 15:37:08 10° W 15:42:03 62° NNW 16:00:20 10° ENE
USA 238 DEB 4.2 15:44:22 10° NNW 15:51:37 51° NE 15:59:26 10° ESE
USA 238 4.2 15:44:29 10° NNW 15:51:43 51° NE 15:59:32 10° ESE
NOSS 2-3 (D) 4.5 15:49:23 10° NNW 15:54:49 82° NE 16:02:12 10° SE
COSMO-SKYMED 1 4.0 15:53:21 10° NE 15:55:58 16° E 15:58:35 10° SE
DNEPR-1 R/B 3.7 15:52:12 10° SSW 15:56:42 57° ESE 16:00:51 10° NE
SL-16 R/B 3.5 15:54:11 10° N 16:00:05 49° WNW 16:05:58 10° SW
Cosmos 968 Rocket 3.5 15:58:34 10° NNW 16:03:38 57° ENE 16:08:37 10° SSE
Cosmos 2366 rocket 4.0 15:58:47 10° N 16:05:09 71° E 16:11:28 10° SSE
Cosmos 1633 Rocket 3.2 16:01:15 10° N 16:05:33 80° W 16:09:51 10° S
Meteor 1-15 Rocket 4.3 15:59:59 10° N 16:05:56 82° E 16:11:46 10° SSE
Cosmos 2218 Rocket 4.0 16:04:30 10° N 16:10:55 73° E 16:17:16 10° SSE
Cosmos 1697 Rocket 4.4 16:09:13 10° NNE 16:11:16 12° NE 16:12:50 11° ENE
Cosmos 1603 3.7 16:06:49 10° SSW 16:12:28 86° ESE 16:18:08 10° NNE
BREEZE-M DEB (TANK) 2.9 16:11:11 10° NW 16:14:00 59° NNE 16:23:52 10° ESE
SL-24 R/B - RUBIN 2 4.3 16:10:37 10° NNW 16:14:28 30° NE 16:18:21 10° ESE
Resurs 1-3 4.4 16:11:17 10° SE 16:14:58 29° ENE 16:18:41 10° N
Meteor 1-12 Rocket 4.4 16:10:18 10° N 16:15:47 50° ENE 16:21:14 10° SSE
Cosmos 1331 Rocket 3.9 16:11:05 10° SSW 16:16:13 86° ESE 16:21:22 10° NNE
Cosmos 1833 Rocket 4.0 16:14:13 10° SE 16:18:06 19° E 16:21:03 13° ENE
Okean 3 4.2 16:15:08 10° SSE 16:18:39 29° E 16:22:10 10° NNE
SJ-6F 4.3 16:17:02 10° SSE 16:21:03 66° ENE 16:25:04 10° N
BREEZE-M DEB (TANK) 4.4 16:18:05 10° WNW 16:22:48 30° N 16:25:29 14° NE
Cosmos 1741 Rocket 4.0 16:18:09 10° NNW 16:23:18 58° ENE 16:28:25 10° SSE
CZ-4 R/B 4.4 16:20:11 10° SSE 16:24:01 52° ENE 16:27:52 10° N
Cosmos 1302 Rocket 4.3 16:22:37 10° S 16:27:35 45° ESE 16:32:36 10° NNE
Cosmos 2341 Rocket 4.3 16:21:36 10° NNW 16:27:53 72° W 16:34:06 10° S
CZ-2D R/B 3.3 16:25:31 10° S 16:28:36 61° W 16:31:42 10° NNW
Cosmos 1850 Rocket 4.0 16:24:38 10° NNW 16:29:57 71° ENE 16:35:15 10° SSE
NOSS 3-4 (A) 3.6 16:24:55 10° SW 16:30:04 58° NW 16:35:42 10° NNE
NOSS 3-4 (C) 3.6 16:25:02 10° SW 16:30:13 59° NW 16:35:53 10° NNE
PSLV R/B 4.3 16:27:01 10° SE 16:30:35 29° ENE 16:34:10 10° N
Helios 1A Rocket 4.4 16:33:11 13° ESE 16:33:11 13° ESE 16:34:08 10° SE
SPOT 1/Viking Rocket 3.4 16:27:11 10° SSE 16:32:19 73° ENE 16:37:27 10° N
Okean 2 3.1 16:28:44 10° S 16:32:32 66° E 16:36:22 10° NNE
Nadezhda 3 Rocket 4.2 16:27:00 10° SSE 16:32:49 48° E 16:38:40 10° NNE
Cosmos 1703 4.1 16:31:49 10° SSW 16:34:58 42° W 16:38:09 10° N
SAR-Lupe-1 4.0 16:32:24 10° SSE 16:35:57 90° W 16:39:32 10° NNW
Cosmos 332 Rocket 3.9 16:31:12 10° NNW 16:36:00 79° WSW 16:40:46 10° SSE
SJ 16-02 4.4 16:34:22 10° NW 16:37:12 17° W 16:40:02 10° SW
SKYMED 2 3.5 16:34:05 10° NNE 16:38:28 84° ESE 16:42:47 10° SSW
RESURS DK-1 2.2 16:39:14 10° SSW 16:43:12 88° ESE 16:46:26 15° NNE
YAOGAN 1 2.5 16:39:52 10° SSE 16:44:02 58° ENE 16:48:13 10° N
Cosmos 1515 Rocket 4.4 16:41:15 10° SSW 16:45:33 52° W 16:49:53 10° N
NOAA 6 4.3 16:41:00 10° SE 16:45:45 41° ENE 16:50:32 10° N
Cosmos 1452 Rocket 3.9 16:42:14 10° SSW 16:47:26 67° WNW 16:52:41 10° NNE
Radarsat Rocket 4.0 16:44:23 10° SSE 16:50:36 59° ENE 16:56:23 10° N
SAR-Lupe-4 4.5 16:49:02 10° S 16:52:31 50° W 16:56:01 10° NNW
Cosmos 2360 4.4 16:48:49 10° NNW 16:54:22 49° ENE 16:59:52 10° SE
ISS -2.0 16:51:51 10° W 16:54:40 25° NNW 16:55:51 20° N
Cosmos 1992 Rocket 4.3 16:50:58 10° S 16:55:50 44° ESE 16:58:23 25° NE
USA 276 3.7 16:55:53 10° WNW 16:57:36 18° NNW 16:57:36 18° NNW
Resurs 01 Rocket 2.0 16:57:13 10° SE 17:01:15 38° ENE 17:05:18 10° N
CZ-2D R/B 3.2 16:57:45 10° SSE 17:01:36 89° W 17:05:26 10° NNW
USA 215 3.2 17:00:13 24° NE 17:04:27 70° SE 17:10:58 10° SW
Spot 4 Rocket 3.9 17:03:23 10° SSE 17:08:30 90° ESE 17:13:39 10° NNW
SJ-7 4.3 17:10:08 10° S 17:13:54 76° WSW 17:17:42 10° NNW
IRAS Rocket 4.1 17:08:44 10° SSE 17:14:08 62° ENE 17:19:37 10° N
Cosmos 1656 3.6 17:09:50 10° NNW 17:15:28 89° ENE 17:20:58 10° SSE
OceanSat 1 rocket 4.4 17:14:24 10° SSE 17:19:05 84° ENE 17:23:50 10° NNW
CZ-3 Stage 3 3.6 17:14:24 10° WSW 17:25:10 30° S 17:27:34 22° SE
Cosmos 1605 Rocket 4.4 17:20:33 10° N 17:25:46 40° ENE 17:25:46 40° ENE
Cosmos 1340 Rocket 4.1 17:23:30 10° NNW 17:27:04 38° W 17:30:38 10° SSW
COSMO-SKYMED 1 3.7 17:27:34 10° N 17:31:25 39° WNW 17:35:14 10° SW
Cosmos 1980 Rocket 4.1 17:27:49 10° N 17:28:53 14° NNE 17:28:53 14° NNE
CARTOSAT-1 3.8 17:32:28 10° S 17:36:38 63° W 17:40:50 10° NNW
USA 267 3.6 17:35:59 41° NE 17:36:50 43° NNE 17:42:57 10° NW
SL-24 R/B 4.5 17:45:54 10° S 17:50:56 84° W 17:56:29 10° N
DELTA 2 R/B (1) 3.7 17:47:04 10° WSW 17:52:22 62° S 17:52:22 62° S
Cosmos 1697 Rocket 3.3 17:50:41 10° NNW 17:54:37 44° N 17:54:37 44° N
Cosmos 1934 Rocket 4.4 17:55:02 10° NNW 18:01:05 62° W 18:07:12 10° S
Cosmos 1833 Rocket 3.1 17:55:55 10° SW 18:01:29 58° WNW 18:02:47 47° NNW
COSMOS 2455 4.0 18:04:13 10° NNW 18:07:26 31° N 18:07:26 31° N
Resurs 01 Rocket 4.1 18:34:40 10° SW 18:37:44 19° W 18:40:51 10° NW
USA 215 4.2 18:47:35 41° NW 18:47:35 41° NW 18:53:13 10° W
NOSS 3-1 (C) 4.5 18:47:52 10° NW 18:53:19 56° NW 18:53:19 56° NW
